TimeEDT,TemperatureF,Dew PointF,Humidity,Sea Level PressureIn,VisibilityMPH,Wind Direction,Wind SpeedMPH,Gust SpeedMPH,PrecipitationIn,Events,Conditions,WindDirDegrees,DateUTC
12:53 AM,66.0,62.1,87,30.01,9.0,Calm,Calm,-,N/A,,Clear,0,2013-08-02 04:53:00
1:53 AM,66.0,62.1,87,30.00,8.0,Calm,Calm,-,N/A,,Clear,0,2013-08-02 05:53:00
2:53 AM,63.0,62.1,97,29.99,7.0,Calm,Calm,-,N/A,,Clear,0,2013-08-02 06:53:00
3:53 AM,63.0,62.1,97,29.99,4.0,Calm,Calm,-,N/A,,Clear,0,2013-08-02 07:53:00
4:53 AM,63.0,61.0,93,30.00,6.0,Calm,Calm,-,N/A,,Clear,0,2013-08-02 08:53:00
5:53 AM,63.0,61.0,93,30.00,9.0,Calm,Calm,-,N/A,,Clear,0,2013-08-02 09:53:00
6:53 AM,61.0,60.1,97,30.03,5.0,Calm,Calm,-,N/A,,Clear,0,2013-08-02 10:53:00
7:09 AM,60.8,57.2,88,30.06,4.0,Calm,Calm,-,N/A,,Partly Cloudy,0,2013-08-02 11:09:00
7:53 AM,63.0,62.1,97,30.02,7.0,Calm,Calm,-,N/A,,Clear,0,2013-08-02 11:53:00
8:09 AM,62.6,60.8,94,30.07,2.0,Calm,Calm,-,N/A,,Partly Cloudy,0,2013-08-02 12:09:00
8:12 AM,60.8,60.8,100,30.07,1.0,Calm,Calm,-,N/A,,Mist,0,2013-08-02 12:12:00
8:20 AM,62.6,60.8,94,30.07,1.8,Calm,Calm,-,N/A,,Partly Cloudy,0,2013-08-02 12:20:00
8:22 AM,62.6,60.8,94,30.07,3.0,Calm,Calm,-,N/A,,Partly Cloudy,0,2013-08-02 12:22:00
8:53 AM,64.9,62.1,90,30.04,10.0,Calm,Calm,-,N/A,,Clear,0,2013-08-02 12:53:00
9:53 AM,69.1,63.0,81,30.03,10.0,Calm,Calm,-,N/A,,Clear,0,2013-08-02 13:53:00
10:53 AM,73.0,63.0,71,30.04,10.0,Calm,Calm,-,N/A,,Clear,0,2013-08-02 14:53:00
11:53 AM,75.0,60.1,60,30.06,10.0,Calm,Calm,-,N/A,,Clear,0,2013-08-02 15:53:00
12:53 PM,75.9,60.1,58,30.05,10.0,Calm,Calm,-,N/A,,Clear,0,2013-08-02 16:53:00
1:53 PM,78.1,57.9,50,30.05,10.0,Calm,Calm,-,N/A,,Clear,0,2013-08-02 17:53:00
2:53 PM,78.1,60.1,54,30.06,10.0,Variable,5.8,-,N/A,,Clear,0,2013-08-02 18:53:00
3:53 PM,77.0,62.1,60,30.06,10.0,Calm,Calm,-,N/A,,Clear,0,2013-08-02 19:53:00
4:53 PM,78.1,62.1,58,30.04,10.0,Calm,Calm,-,N/A,,Partly Cloudy,0,2013-08-02 20:53:00
5:53 PM,75.9,64.0,67,30.03,10.0,Calm,Calm,-,N/A,,Clear,0,2013-08-02 21:53:00
6:53 PM,75.0,64.0,69,30.01,10.0,Calm,Calm,-,N/A,,Clear,0,2013-08-02 22:53:00
7:53 PM,73.9,63.0,68,30.02,10.0,Calm,Calm,-,N/A,,Clear,0,2013-08-02 23:53:00
8:53 PM,72.0,62.1,71,30.02,10.0,Calm,Calm,-,N/A,,Clear,0,2013-08-03 00:53:00
9:53 PM,71.1,63.0,75,30.03,10.0,Calm,Calm,-,N/A,,Clear,0,2013-08-03 01:53:00
10:53 PM,70.0,63.0,78,30.03,10.0,Calm,Calm,-,N/A,,Clear,0,2013-08-03 02:53:00
11:53 PM,68.0,64.9,90,30.01,10.0,Calm,Calm,-,N/A,,Clear,0,2013-08-03 03:53:00